QPF
0.00 0.00 0.00 0.00 0.00 0.00 0.00 0.00 0.00 0.00 0.00 0.00 0.00 0.00 0.00 0.00 0.00 0.00 0.00 0.01 0.05 0.04 0.00 0.00 0.03 0.08 0.07 0.08 0.10 0.06 0.09 0.16 0.14 0.09 0.03 0.02 0.01 0.00 0.00 0.00 0.00 0.00 0.02 0.07 0.09 0.08 0.01 0.00 0.00 0.00 0.00 0.00 0.00 0.00
0.00 0.00 0.00 0.00 0.00 0.00 0.00 0.00 0.00 0.00 0.00 0.00 0.00 0.00 0.00 0.00 0.00 0.00 0.01 0.01 0.01 0.02 0.00 0.00 0.01 0.07 0.10 0.13 0.13 0.09 0.16 0.18 0.23 0.21 0.17 0.03 0.00 0.00 0.00 0.00 0.00 0.00 0.00 0.00 0.01 0.02 0.00 0.00 0.00 0.00 0.00 0.00 0.00 0.00
0.00 0.00 0.00 0.00 0.00 0.00 0.00 0.00 0.00 0.00 0.00 0.00 0.00 0.00 0.00 0.00 0.00 0.00 0.02 0.00 0.00 0.01 0.00 0.00 0.00 0.01 0.04 0.09 0.13 0.12 0.12 0.16 0.16 0.17 0.23 0.24 0.02 0.00 0.00 0.00 0.00 0.00 0.00 0.00 0.00 0.00 0.00 0.00 0.00 0.00 0.00 0.00 0.00 0.00
0.00 0.00 0.00 0.00 0.00 0.00 0.00 0.00 0.00 0.00 0.00 0.00 0.00 0.00 0.00 0.00 0.00 0.00 0.01 0.00 0.00 0.01 0.01 0.00 0.00 0.00 0.00 0.02 0.07 0.10 0.11 0.13 0.14 0.15 0.13 0.19 0.15 0.02 0.00 0.00 0.00 0.00 0.00 0.00 0.00 0.00 0.00 0.00 0.00 0.00 0.00 0.00 0.00 0.00
0.00 0.00 0.00 0.00 0.00 0.00 0.00 0.00 0.00 0.00 0.00 0.00 0.00 0.00 0.00 0.00 0.00 0.00 0.00 0.00 0.00 0.00 0.01 0.00 0.00 0.00 0.00 0.00 0.00 0.01 0.03 0.08 0.09 0.12 0.13 0.11 0.10 0.08 0.02 0.02 0.04 0.03 0.02 0.01 0.01 0.00 0.00 0.00 0.00 0.00 0.00 0.00 0.00 0.00
0.00 0.00 0.00 0.00 0.00 0.00 0.00 0.00 0.00 0.00 0.00 0.00 0.00 0.00 0.00 0.00 0.00 0.00 0.00 0.00 0.00 0.00 0.03 0.01 0.00 0.00 0.00 0.00 0.00 0.00 0.00 0.01 0.04 0.06 0.09 0.09 0.09 0.13 0.10 0.07 0.05 0.03 0.03 0.04 0.04 0.03 0.01 0.00 0.00 0.00 0.00 0.00 0.00 0.00
0.00 0.00 0.00 0.00 0.00 0.00 0.00 0.00 0.00 0.00 0.00 0.00 0.00 0.00 0.00 0.00 0.00 0.00 0.00 0.00 0.00 0.00 0.03 0.01 0.00 0.00 0.00 0.00 0.00 0.00 0.00 0.00 0.01 0.03 0.04 0.05 0.05 0.06 0.08 0.06 0.05 0.06 0.06 0.06 0.06 0.07 0.08 0.07 0.04 0.02 0.00 0.01 0.01 0.01
0.00 0.00 0.00 0.00 0.00 0.00 0.00 0.00 0.00 0.00 0.00 0.00 0.00 0.00 0.00 0.00 0.00 0.00 0.00 0.00 0.00 0.00 0.00 0.00 0.00 0.00 0.00 0.00 0.00 0.00 0.00 0.00 0.00 0.01 0.01 0.02 0.03 0.04 0.03 0.02 0.02 0.02 0.04 0.05 0.06 0.05 0.06 0.09 0.11 0.12 0.09 0.04 0.03 0.04
0.00 0.00 0.00 0.00 0.00 0.00 0.00 0.00 0.00 0.00 0.00 0.00 0.00 0.00 0.00 0.00 0.00 0.00 0.00 0.00 0.00 0.00 0.00 0.00 0.00 0.00 0.00 0.00 0.00 0.00 0.00 0.00 0.00 0.00 0.00 0.00 0.01 0.02 0.03 0.03 0.03 0.04 0.05 0.05 0.06 0.07 0.09 0.09 0.09 0.11 0.11 0.08 0.04 0.06
0.00 0.00 0.00 0.00 0.00 0.00 0.00 0.00 0.00 0.00 0.00 0.00 0.00 0.00 0.00 0.00 0.00 0.00 0.00 0.00 0.00 0.00 0.00 0.00 0.00 0.00 0.00 0.00 0.00 0.00 0.00 0.00 0.01 0.01 0.00 0.00 0.00 0.01 0.02 0.02 0.03 0.05 0.06 0.07 0.08 0.10 0.10 0.10 0.10 0.11 0.11 0.09 0.03 0.03
0.00 0.00 0.00 0.00 0.00 0.00 0.00 0.00 0.00 0.00 0.00 0.00 0.00 0.00 0.00 0.00 0.00 0.00 0.00 0.00 0.00 0.00 0.00 0.00 0.00 0.00 0.00 0.01 0.01 0.01 0.01 0.00 0.02 0.00 0.01 0.01 0.01 0.01 0.02 0.02 0.03 0.05 0.06 0.07 0.09 0.12 0.15 0.12 0.11 0.09 0.07 0.03 0.01 0.00
0.00 0.00 0.00 0.00 0.00 0.00 0.00 0.00 0.00 0.00 0.00 0.00 0.00 0.00 0.00 0.00 0.00 0.00 0.00 0.00 0.00 0.00 0.00 0.00 0.00 0.00 0.00 0.01 0.02 0.00 0.00 0.01 0.02 0.00 0.01 0.01 0.03 0.04 0.03 0.03 0.04 0.06 0.08 0.09 0.13 0.15 0.17 0.15 0.12 0.07 0.05 0.02 0.01 0.00
0.00 0.00 0.00 0.00 0.00 0.00 0.00 0.00 0.00 0.00 0.00 0.00 0.00 0.00 0.00 0.00 0.00 0.00 0.00 0.00 0.00 0.00 0.00 0.00 0.00 0.00 0.00 0.01 0.01 0.01 0.00 0.01 0.01 0.01 0.01 0.02 0.03 0.05 0.06 0.06 0.06 0.06 0.07 0.08 0.11 0.12 0.11 0.08 0.06 0.03 0.01 0.00 0.00 0.00
0.00 0.00 0.00 0.00 0.00 0.00 0.00 0.00 0.00 0.00 0.00 0.00 0.00 0.00 0.00 0.00 0.00 0.00 0.00 0.00 0.00 0.00 0.00 0.00 0.00 0.00 0.00 0.01 0.01 0.00 0.00 0.00 0.01 0.01 0.01 0.02 0.03 0.06 0.07 0.07 0.07 0.08 0.07 0.07 0.08 0.08 0.07 0.05 0.02 0.01 0.00 0.00 0.00 0.00
0.00 0.00 0.00 0.00 0.00 0.00 0.00 0.00 0.00 0.00 0.00 0.00 0.00 0.00 0.00 0.00 0.00 0.00 0.00 0.00 0.00 0.00 0.00 0.00 0.00 0.00 0.01 0.02 0.01 0.01 0.00 0.00 0.01 0.01 0.01 0.02 0.03 0.04 0.06 0.07 0.08 0.08 0.08 0.08 0.07 0.06 0.03 0.01 0.00 0.00 0.00 0.00 0.00 0.00
0.00 0.00 0.00 0.00 0.00 0.00 0.00 0.00 0.00 0.00 0.00 0.00 0.00 0.00 0.00 0.00 0.00 0.00 0.00 0.00 0.00 0.00 0.00 0.00 0.00 0.01 0.02 0.01 0.01 0.01 0.01 0.01 0.01 0.01 0.02 0.02 0.02 0.03 0.04 0.06 0.06 0.07 0.07 0.06 0.04 0.02 0.01 0.00 0.00 0.00 0.00 0.00 0.00 0.00
0.00 0.00 0.00 0.00 0.00 0.00 0.00 0.00 0.00 0.00 0.00 0.00 0.00 0.00 0.00 0.00 0.00 0.00 0.00 0.00 0.00 0.00 0.00 0.00 0.00 0.00 0.00 0.01 0.01 0.01 0.01 0.01 0.01 0.01 0.01 0.01 0.01 0.02 0.03 0.04 0.05 0.06 0.05 0.04 0.02 0.01 0.00 0.00 0.00 0.00 0.00 0.00 0.00 0.00
0.01 0.00 0.00 0.00 0.00 0.00 0.00 0.00 0.00 0.00 0.00 0.00 0.00 0.00 0.00 0.00 0.00 0.00 0.00 0.00 0.00 0.00 0.00 0.00 0.00 0.00 0.00 0.00 0.00 0.01 0.01 0.01 0.01 0.02 0.02 0.02 0.02 0.02 0.02 0.04 0.04 0.04 0.04 0.02 0.01 0.00 0.00 0.00 0.00 0.00 0.00 0.00 0.00 0.00
0.01 0.00 0.00 0.00 0.00 0.00 0.00 0.00 0.00 0.00 0.00 0.00 0.00 0.00 0.00 0.00 0.00 0.00 0.00 0.00 0.00 0.00 0.00 0.00 0.00 0.00 0.00 0.00 0.00 0.00 0.00 0.01 0.01 0.02 0.02 0.02 0.02 0.02 0.02 0.02 0.03 0.03 0.02 0.01 0.00 0.00 0.00 0.00 0.00 0.00 0.00 0.00 0.00 0.00
0.06 0.01 0.01 0.01 0.00 0.00 0.00 0.00 0.00 0.00 0.00 0.00 0.00 0.00 0.00 0.00 0.00 0.00 0.00 0.00 0.00 0.00 0.00 0.00 0.00 0.00 0.00 0.00 0.00 0.00 0.00 0.01 0.01 0.02 0.02 0.02 0.02 0.02 0.02 0.02 0.02 0.02 0.02 0.01 0.00 0.00 0.00 0.00 0.00 0.00 0.00 0.00 0.00 0.00
0.04 0.02 0.03 0.03 0.01 0.00 0.00 0.00 0.00 0.00 0.00 0.00 0.00 0.00 0.00 0.00 0.00 0.00 0.00 0.00 0.00 0.00 0.00 0.00 0.00 0.00 0.00 0.00 0.00 0.00 0.00 0.00 0.01 0.01 0.02 0.03 0.02 0.02 0.02 0.02 0.02 0.01 0.01 0.00 0.00 0.00 0.00 0.00 0.00 0.00 0.00 0.00 0.00 0.00
0.04 0.03 0.06 0.04 0.03 0.01 0.00 0.00 0.00 0.00 0.00 0.00 0.00 0.00 0.00 0.00 0.00 0.00 0.00 0.00 0.00 0.00 0.00 0.00 0.00 0.00 0.00 0.00 0.00 0.00 0.00 0.00 0.01 0.01 0.02 0.02 0.02 0.02 0.02 0.02 0.02 0.01 0.01 0.00 0.00 0.00 0.00 0.00 0.00 0.00 0.00 0.00 0.00 0.00
0.04 0.07 0.08 0.03 0.02 0.01 0.00 0.00 0.00 0.00 0.00 0.00 0.00 0.00 0.00 0.00 0.00 0.00 0.00 0.00 0.00 0.00 0.00 0.00 0.00 0.00 0.00 0.00 0.00 0.00 0.00 0.00 0.01 0.01 0.01 0.01 0.01 0.01 0.01 0.01 0.01 0.01 0.01 0.00 0.00 0.00 0.00 0.00 0.00 0.00 0.00 0.00 0.00 0.00
0.09 0.10 0.07 0.03 0.02 0.00 0.00 0.00 0.00 0.00 0.00 0.00 0.00 0.00 0.00 0.00 0.00 0.00 0.00 0.00 0.00 0.00 0.00 0.00 0.00 0.00 0.00 0.00 0.00 0.00 0.00 0.00 0.00 0.00 0.00 0.01 0.01 0.01 0.01 0.01 0.01 0.01 0.00 0.00 0.00 0.00 0.00 0.00 0.00 0.00 0.00 0.00 0.00 0.00
0.16 0.08 0.03 0.02 0.00 0.00 0.00 0.00 0.01 0.01 0.00 0.00 0.00 0.00 0.00 0.00 0.00 0.00 0.00 0.00 0.00 0.00 0.00 0.00 0.00 0.00 0.00 0.00 0.00 0.00 0.00 0.00 0.00 0.00 0.00 0.00 0.00 0.00 0.00 0.00 0.00 0.00 0.00 0.00 0.00 0.00 0.00 0.00 0.00 0.00 0.00 0.00 0.00 0.00
0.12 0.04 0.03 0.01 0.00 0.00 0.00 0.02 0.01 0.00 0.00 0.00 0.00 0.00 0.00 0.00 0.00 0.00 0.00 0.00 0.00 0.00 0.00 0.00 0.00 0.00 0.00 0.00 0.00 0.00 0.00 0.00 0.00 0.00 0.00 0.00 0.00 0.00 0.00 0.00 0.00 0.00 0.00 0.00 0.00 0.00 0.00 0.00 0.00 0.00 0.00 0.00 0.00 0.00
0.08 0.03 0.02 0.00 0.00 0.01 0.02 0.02 0.00 0.00 0.00 0.00 0.00 0.00 0.00 0.00 0.00 0.00 0.00 0.00 0.00 0.00 0.00 0.00 0.00 0.00 0.00 0.00 0.00 0.00 0.00 0.00 0.00 0.00 0.00 0.00 0.00 0.00 0.00 0.00 0.00 0.00 0.00 0.00 0.00 0.00 0.00 0.00 0.00 0.00 0.00 0.00 0.00 0.00
0.04 0.01 0.00 0.00 0.02 0.05 0.06 0.04 0.02 0.01 0.00 0.00 0.00 0.00 0.00 0.00 0.00 0.00 0.00 0.00 0.00 0.00 0.00 0.00 0.00 0.00 0.00 0.00 0.00 0.00 0.00 0.00 0.00 0.00 0.00 0.00 0.00 0.00 0.00 0.00 0.00 0.00 0.00 0.00 0.00 0.00 0.00 0.00 0.00 0.00 0.00 0.00 0.00 0.00
0.01 0.00 0.01 0.04 0.07 0.08 0.06 0.04 0.02 0.01 0.00 0.00 0.00 0.00 0.00 0.00 0.00 0.00 0.00 0.00 0.00 0.00 0.00 0.00 0.00 0.00 0.00 0.00 0.00 0.00 0.00 0.00 0.00 0.00 0.00 0.00 0.00 0.00 0.00 0.00 0.00 0.00 0.00 0.00 0.00 0.00 0.01 0.01 0.01 0.02 0.02 0.01 0.00 0.00
0.01 0.02 0.06 0.08 0.08 0.06 0.04 0.03 0.03 0.02 0.01 0.00 0.00 0.00 0.00 0.00 0.00 0.00 0.00 0.00 0.00 0.00 0.00 0.00 0.00 0.00 0.00 0.00 0.00 0.00 0.00 0.00 0.00 0.00 0.00 0.00 0.00 0.00 0.00 0.00 0.00 0.00 0.00 0.00 0.00 0.00 0.00 0.00 0.00 0.00 0.00 0.00 0.00 0.00
0.06 0.08 0.08 0.06 0.05 0.04 0.04 0.04 0.03 0.01 0.00 0.00 0.00 0.00 0.00 0.00 0.00 0.00 0.00 0.00 0.00 0.00 0.00 0.00 0.00 0.00 0.00 0.00 0.00 0.00 0.00 0.00 0.00 0.00 0.00 0.00 0.00 0.00 0.00 0.00 0.00 0.00 0.00 0.00 0.00 0.00 0.00 0.00 0.00 0.00 0.00 0.00 0.00 0.00
0.07 0.06 0.05 0.04 0.04 0.03 0.03 0.02 0.02 0.01 0.00 0.00 0.00 0.00 0.00 0.00 0.00 0.00 0.00 0.00 0.00 0.00 0.00 0.00 0.00 0.00 0.00 0.00 0.00 0.00 0.00 0.00 0.00 0.00 0.00 0.00 0.00 0.00 0.00 0.00 0.00 0.00 0.00 0.00 0.00 0.00 0.00 0.00 0.00 0.00 0.00 0.00 0.00 0.00
0.04 0.04 0.03 0.03 0.02 0.02 0.02 0.01 0.00 0.00 0.00 0.00 0.00 0.00 0.00 0.00 0.00 0.00 0.00 0.00 0.00 0.00 0.00 0.00 0.00 0.00 0.00 0.00 0.00 0.00 0.00 0.00 0.00 0.00 0.01 0.01 0.01 0.01 0.01 0.02 0.02 0.01 0.00 0.00 0.00 0.00 0.00 0.00 0.00 0.00 0.00 0.00 0.00 0.00
MSLP
1030.14 1029.47 1028.82 1028.03 1027.32 1026.63 1025.74 1024.79 1024.01 1023.12 1022.24 1021.35 1020.61 1019.81 1019.00 1018.39 1017.96 1017.78 1017.28 1016.78 1017.46 1016.79 1015.51 1015.02 1014.91 1014.77 1014.33 1014.08 1013.44 1011.83 1010.24 1008.94 1007.37 1006.52 1005.63 1004.71 1004.09 1003.34 1003.22 1003.61 1003.98 1004.55 1005.39 1005.82 1006.40 1006.36 1005.81 1004.10 1004.30 1004.54 1004.58 1004.40 1004.05 1003.87
1030.17 1029.51 1028.73 1028.09 1027.34 1026.46 1025.63 1024.74 1023.83 1022.94 1021.99 1021.03 1020.11 1019.33 1018.71 1018.14 1017.74 1017.43 1017.09 1016.69 1016.94 1016.80 1015.51 1014.83 1014.56 1014.64 1014.78 1014.56 1014.26 1013.02 1012.13 1011.07 1009.64 1008.57 1006.55 1005.18 1004.56 1004.08 1003.73 1004.56 1004.38 1005.23 1004.90 1005.54 1006.14 1006.35 1005.96 1006.04 1005.80 1005.55 1005.38 1005.30 1005.26 1005.27
1029.80 1029.32 1028.59 1027.92 1027.20 1026.33 1025.46 1024.70 1023.76 1022.61 1021.70 1020.70 1019.69 1018.72 1018.23 1017.85 1017.49 1017.38 1017.12 1017.26 1016.71 1016.27 1015.02 1014.49 1014.11 1014.32 1014.39 1014.36 1014.29 1014.03 1012.28 1011.67 1010.79 1010.57 1009.29 1007.23 1005.96 1005.65 1005.60 1005.99 1006.25 1006.76 1006.69 1006.42 1006.88 1007.63 1007.61 1007.55 1007.12 1006.64 1006.42 1006.30 1006.47 1006.88
1029.63 1029.11 1028.49 1027.77 1027.00 1026.20 1025.31 1024.47 1023.61 1022.53 1021.45 1020.44 1019.28 1018.39 1017.93 1017.58 1017.25 1017.06 1017.60 1017.84 1017.40 1017.20 1016.28 1014.35 1013.77 1013.87 1013.66 1013.42 1013.36 1013.28 1012.68 1011.73 1011.03 1010.25 1009.63 1008.52 1007.66 1007.50 1007.29 1007.59 1008.80 1010.69 1009.27 1009.10 1009.27 1009.05 1009.02 1008.81 1008.40 1008.03 1007.99 1007.88 1008.26 1008.55
1029.80 1029.02 1028.40 1027.68 1026.83 1025.99 1025.28 1024.38 1023.33 1022.27 1021.25 1020.29 1019.20 1018.25 1017.68 1017.44 1017.26 1017.29 1017.91 1018.24 1018.13 1018.42 1017.41 1015.48 1014.13 1013.33 1013.40 1013.16 1012.53 1012.35 1012.19 1011.60 1010.90 1010.33 1010.14 1009.88 1009.73 1009.81 1009.12 1010.07 1012.91 1013.78 1013.50 1012.44 1011.69 1011.24 1010.63 1010.18 1009.61 1009.34 1009.34 1009.56 1010.06 1010.34
1029.75 1029.04 1028.29 1027.52 1026.76 1025.89 1025.04 1024.25 1023.21 1022.03 1020.93 1020.10 1019.07 1018.42 1017.77 1017.31 1017.07 1017.53 1017.97 1018.18 1018.22 1018.19 1017.88 1016.34 1014.21 1013.95 1013.55 1012.78 1012.21 1011.94 1011.69 1011.48 1011.29 1010.86 1010.79 1010.81 1011.48 1011.57 1011.52 1013.80 1016.20 1016.02 1015.38 1014.59 1013.41 1012.70 1012.06 1011.63 1011.00 1011.05 1011.08 1011.45 1011.82 1012.42
1029.59 1028.79 1028.26 1027.51 1026.59 1025.77 1024.81 1024.05 1023.07 1022.00 1020.70 1019.81 1019.02 1018.42 1018.13 1017.64 1017.39 1017.73 1018.87 1019.03 1018.06 1018.07 1017.84 1016.93 1016.09 1015.09 1014.53 1013.36 1012.65 1012.25 1011.86 1011.76 1011.77 1011.57 1011.89 1012.45 1013.04 1013.08 1014.59 1017.03 1017.97 1017.33 1016.42 1015.12 1014.11 1013.90 1013.60 1013.25 1013.26 1013.25 1012.93 1013.23 1013.74 1014.72
1029.43 1028.73 1028.06 1027.33 1026.64 1025.82 1024.87 1023.89 1022.87 1021.85 1020.69 1019.70 1018.96 1018.50 1018.32 1018.06 1018.14 1018.30 1018.55 1018.38 1017.84 1017.90 1018.15 1019.33 1019.19 1017.69 1016.31 1015.65 1014.43 1013.21 1012.75 1012.14 1012.29 1012.60 1013.27 1013.88 1014.85 1016.28 1018.27 1019.82 1019.46 1018.66 1017.02 1015.88 1015.26 1014.87 1014.76 1014.95 1014.69 1014.83 1014.95 1015.15 1015.76 1016.75
1028.88 1028.37 1027.90 1027.24 1026.55 1025.81 1025.05 1024.05 1022.88 1021.79 1020.54 1019.47 1018.72 1018.25 1018.45 1018.97 1019.27 1019.25 1018.69 1018.42 1018.30 1019.05 1020.25 1022.08 1022.52 1020.81 1018.83 1018.02 1016.24 1014.46 1013.63 1013.10 1013.19 1013.62 1014.29 1015.05 1017.64 1020.10 1021.85 1021.56 1020.67 1019.40 1018.52 1017.57 1016.81 1016.53 1016.28 1016.14 1016.38 1016.81 1017.02 1017.38 1017.72 1019.02
1028.24 1027.91 1027.69 1027.06 1026.38 1025.63 1025.02 1024.19 1023.11 1021.91 1020.71 1019.77 1019.08 1019.10 1020.13 1020.47 1019.75 1019.11 1018.86 1019.25 1020.00 1021.53 1022.39 1024.06 1024.01 1023.37 1022.32 1020.37 1017.84 1016.54 1015.03 1014.34 1014.06 1014.96 1015.15 1016.88 1020.26 1022.18 1022.58 1022.31 1021.66 1020.75 1019.90 1018.92 1018.35 1018.35 1018.11 1018.11 1018.42 1018.66 1019.08 1019.72 1020.08 1020.71
1027.89 1027.42 1027.18 1026.82 1026.21 1025.56 1025.09 1024.36 1023.46 1022.38 1021.55 1021.65 1021.79 1021.86 1021.39 1020.40 1020.07 1020.81 1022.27 1023.09 1023.75 1024.55 1025.26 1025.51 1025.49 1024.98 1023.16 1022.14 1020.22 1018.45 1016.95 1015.61 1015.31 1015.99 1016.35 1018.80 1021.96 1023.49 1023.68 1023.27 1022.74 1022.13 1021.39 1020.70 1020.20 1020.06 1019.96 1019.94 1020.15 1020.18 1020.86 1021.44 1021.62 1021.93
1027.55 1027.08 1026.78 1026.54 1026.08 1025.63 1025.00 1024.44 1023.76 1023.37 1023.36 1023.48 1023.53 1023.12 1022.48 1022.46 1023.23 1024.71 1026.51 1026.65 1026.86 1027.38 1027.39 1027.14 1026.79 1026.11 1024.22 1022.74 1021.08 1019.25 1018.41 1017.15 1017.09 1017.65 1018.30 1021.62 1024.40 1025.08 1024.94 1024.58 1024.11 1023.46 1022.97 1022.19 1021.94 1021.98 1022.07 1021.76 1021.89 1021.65 1022.14 1022.73 1023.07 1023.39
1027.10 1026.64 1026.46 1026.05 1025.64 1025.42 1024.97 1024.49 1023.84 1023.50 1022.86 1023.05 1023.55 1024.21 1025.04 1026.30 1027.44 1028.92 1029.79 1029.82 1029.63 1029.14 1028.82 1028.62 1028.10 1026.98 1025.08 1023.56 1022.01 1021.02 1019.76 1019.05 1018.73 1019.63 1022.41 1024.94 1025.73 1026.03 1026.05 1025.84 1025.44 1024.98 1024.55 1023.91 1023.74 1023.90 1023.91 1023.32 1023.21 1023.34 1023.71 1024.30 1024.56 1024.83
1026.25 1026.08 1025.78 1025.59 1025.30 1025.03 1024.75 1024.50 1024.16 1023.59 1023.36 1024.76 1025.79 1027.38 1027.96 1029.04 1029.99 1030.50 1030.92 1030.99 1030.66 1030.42 1030.22 1029.94 1029.19 1028.02 1026.14 1024.45 1023.08 1022.45 1021.18 1020.95 1021.19 1022.86 1025.15 1026.34 1026.75 1026.94 1026.92 1026.72 1026.31 1026.12 1025.65 1025.29 1025.22 1025.20 1025.03 1024.87 1024.95 1025.22 1025.48 1025.72 1025.81 1026.16
1025.50 1025.35 1025.22 1024.95 1024.98 1024.75 1024.78 1024.55 1024.26 1024.24 1024.81 1026.35 1027.07 1028.99 1029.66 1029.93 1030.31 1030.87 1031.26 1031.45 1031.34 1031.40 1031.29 1030.66 1029.95 1029.01 1027.22 1025.42 1024.47 1024.10 1023.56 1024.46 1025.88 1026.84 1027.34 1027.55 1027.67 1027.70 1027.67 1027.52 1027.32 1027.05 1026.85 1026.70 1026.66 1026.60 1026.69 1026.77 1026.88 1027.00 1027.16 1027.31 1027.30 1027.31
1024.95 1024.87 1024.78 1024.89 1025.01 1024.82 1024.55 1024.47 1024.83 1025.35 1026.47 1027.48 1028.31 1029.43 1029.98 1030.70 1030.94 1031.38 1031.68 1032.02 1032.18 1032.23 1031.82 1031.59 1030.84 1029.60 1028.11 1027.57 1026.88 1027.16 1027.11 1028.00 1028.64 1028.73 1028.67 1028.42 1028.55 1028.56 1028.52 1028.41 1028.28 1028.11 1027.99 1027.97 1028.03 1028.12 1028.22 1028.22 1028.16 1028.32 1028.41 1028.34 1028.26 1028.24
1024.14 1024.25 1024.20 1024.31 1024.62 1025.07 1025.03 1024.90 1025.36 1026.81 1027.66 1028.52 1029.03 1029.00 1029.77 1030.57 1031.24 1031.81 1032.22 1032.64 1032.66 1032.99 1032.99 1032.59 1032.35 1031.34 1030.33 1029.38 1029.37 1029.60 1029.92 1030.18 1030.13 1029.78 1029.63 1029.53 1029.45 1029.38 1029.24 1029.14 1029.12 1029.09 1029.08 1029.10 1029.15 1029.22 1029.27 1029.19 1029.02 1028.99 1029.06 1029.21 1029.01 1029.03
1023.42 1023.42 1023.81 1024.15 1024.52 1025.01 1026.00 1026.66 1027.04 1027.68 1028.77 1029.35 1029.66 1029.66 1030.08 1030.78 1031.56 1032.15 1032.71 1033.01 1033.27 1033.63 1033.54 1033.58 1033.45 1032.84 1032.03 1031.48 1031.25 1031.55 1031.36 1031.30 1030.81 1030.62 1030.48 1030.20 1030.00 1029.84 1029.76 1029.70 1029.66 1029.63 1029.62 1029.65 1029.73 1029.78 1029.70 1029.64 1029.68 1029.78 1029.74 1029.57 1029.52 1029.47
1022.71 1023.15 1023.55 1024.07 1024.58 1025.20 1026.48 1027.67 1027.97 1028.64 1029.51 1029.81 1030.00 1030.34 1030.74 1031.56 1032.12 1032.44 1032.90 1033.45 1033.75 1033.87 1034.10 1033.93 1033.96 1033.56 1032.87 1032.61 1032.55 1032.44 1032.43 1032.21 1031.78 1031.14 1030.77 1030.61 1030.46 1030.32 1030.25 1030.21 1030.08 1030.03 1029.98 1029.96 1029.98 1030.14 1030.29 1030.40 1030.42 1030.34 1030.24 1030.12 1030.23 1030.06
1021.97 1022.86 1023.48 1024.28 1024.77 1025.56 1027.32 1028.51 1028.58 1028.80 1029.86 1030.11 1030.41 1031.05 1031.51 1032.19 1032.72 1033.14 1033.62 1033.94 1034.10 1034.36 1034.53 1034.41 1033.81 1033.51 1033.39 1033.36 1033.30 1033.26 1033.01 1032.69 1032.38 1031.46 1030.69 1030.62 1030.59 1030.58 1030.60 1030.56 1030.47 1030.32 1030.25 1030.20 1030.16 1030.22 1030.48 1030.72 1030.82 1030.79 1030.54 1030.42 1030.64 1030.70
1022.47 1023.47 1023.94 1024.74 1026.01 1026.38 1027.35 1028.44 1029.03 1029.61 1030.12 1030.61 1031.34 1031.72 1032.53 1032.91 1033.42 1033.92 1034.44 1034.32 1034.46 1034.62 1034.29 1033.92 1033.82 1033.67 1033.56 1033.68 1033.61 1033.51 1033.28 1033.15 1032.83 1032.29 1031.54 1030.88 1030.82 1030.76 1030.82 1030.85 1030.81 1030.65 1030.54 1030.56 1030.63 1030.79 1030.96 1031.09 1031.08 1031.09 1031.13 1031.07 1031.04 1030.98
1022.14 1022.97 1023.91 1024.90 1026.06 1027.17 1028.05 1029.28 1029.16 1029.94 1030.44 1031.33 1031.92 1032.44 1033.23 1033.58 1033.99 1034.50 1034.83 1034.56 1034.29 1033.55 1033.57 1033.58 1033.79 1033.86 1033.89 1033.90 1033.79 1033.50 1033.38 1033.25 1032.73 1032.16 1031.46 1031.14 1030.94 1030.95 1031.04 1031.15 1031.06 1031.00 1030.97 1031.08 1031.20 1031.39 1031.56 1031.57 1031.36 1031.48 1031.50 1031.31 1030.98 1030.77
1021.84 1022.48 1023.65 1024.69 1025.97 1027.03 1029.22 1029.75 1029.35 1029.87 1030.51 1031.49 1032.29 1033.03 1033.44 1033.77 1034.08 1034.51 1034.76 1033.99 1033.37 1032.88 1033.13 1033.50 1033.71 1033.81 1034.07 1033.81 1033.51 1033.40 1033.30 1033.29 1032.90 1032.51 1032.18 1031.86 1031.58 1031.51 1031.52 1031.62 1031.70 1031.59 1031.59 1031.82 1031.93 1032.00 1032.04 1031.71 1031.98 1031.67 1031.80 1031.58 1031.45 1031.06
1021.22 1022.28 1023.47 1024.28 1025.16 1027.42 1028.80 1029.10 1029.18 1029.54 1030.19 1030.93 1031.69 1032.53 1033.23 1033.73 1034.03 1034.29 1034.24 1033.44 1032.44 1032.49 1033.02 1033.33 1033.61 1033.83 1033.99 1033.84 1033.53 1033.34 1033.33 1033.41 1033.14 1032.67 1032.52 1032.36 1031.99 1031.91 1032.01 1032.08 1032.15 1032.19 1032.25 1032.35 1032.40 1032.40 1032.37 1032.33 1031.97 1032.10 1032.00 1031.77 1031.42 1031.10
1021.07 1022.71 1023.44 1024.52 1025.65 1026.71 1027.35 1028.09 1028.34 1028.72 1028.98 1029.71 1030.76 1031.79 1032.51 1033.05 1033.59 1033.70 1033.20 1032.25 1032.08 1032.33 1032.72 1033.00 1033.28 1033.44 1033.78 1033.53 1033.27 1033.35 1033.44 1033.71 1033.70 1033.30 1032.78 1032.63 1032.47 1032.19 1032.21 1032.32 1032.44 1032.50 1032.60 1032.69 1032.74 1032.69 1032.63 1032.54 1032.40 1032.25 1032.01 1031.76 1031.43 1031.03
1020.27 1021.63 1022.52 1023.06 1024.56 1025.06 1025.35 1026.38 1026.85 1027.23 1027.95 1028.90 1029.86 1031.03 1031.76 1032.33 1032.76 1032.26 1031.40 1030.85 1031.27 1031.69 1032.20 1032.63 1032.93 1033.44 1033.42 1033.27 1033.32 1033.38 1033.52 1033.53 1033.77 1033.61 1032.95 1032.78 1032.77 1032.76 1032.71 1032.67 1032.70 1032.81 1032.83 1032.86 1033.05 1032.76 1032.52 1032.36 1032.23 1032.03 1031.79 1031.49 1031.14 1030.89
1019.58 1021.35 1022.41 1023.14 1023.50 1024.16 1025.00 1025.66 1026.06 1026.46 1027.07 1027.58 1028.82 1030.10 1030.78 1031.40 1031.09 1030.41 1030.20 1030.23 1030.91 1031.28 1031.48 1031.96 1032.49 1033.05 1033.26 1033.38 1033.15 1033.21 1033.12 1033.32 1033.46 1033.28 1033.03 1032.92 1032.84 1032.81 1032.94 1033.02 1032.90 1032.84 1032.91 1032.59 1032.38 1032.25 1032.00 1031.81 1031.67 1031.48 1031.27 1030.97 1030.83 1030.67
1019.56 1020.73 1021.88 1023.25 1023.63 1024.04 1024.54 1025.18 1025.65 1025.86 1026.10 1026.63 1027.71 1028.79 1029.03 1029.19 1029.36 1029.70 1030.02 1030.33 1030.77 1031.40 1032.01 1032.39 1032.44 1032.86 1033.03 1033.15 1033.16 1033.25 1033.34 1033.23 1033.15 1032.99 1032.87 1032.74 1032.64 1032.65 1032.73 1032.86 1032.82 1031.94 1031.71 1032.03 1031.42 1031.11 1031.01 1030.91 1030.78 1030.59 1030.43 1030.36 1030.25 1029.91
1020.41 1021.00 1021.74 1023.29 1024.08 1024.51 1024.89 1025.28 1025.52 1025.86 1026.18 1026.50 1027.09 1027.63 1028.15 1028.58 1029.33 1029.80 1030.31 1030.69 1031.09 1031.88 1032.74 1032.97 1033.17 1033.00 1033.00 1032.94 1032.95 1033.06 1033.16 1033.54 1033.45 1033.44 1033.27 1033.07 1032.77 1032.70 1032.55 1032.59 1032.56 1032.42 1032.27 1031.84 1030.74 1030.05 1029.83 1029.48 1029.16 1029.09 1029.25 1029.64 1029.63 1029.53
1021.31 1021.53 1022.37 1023.51 1024.43 1025.53 1026.58 1027.01 1027.00 1027.17 1027.33 1027.57 1027.77 1028.16 1028.69 1029.39 1029.94 1030.13 1030.56 1031.18 1031.81 1032.38 1032.55 1032.75 1033.00 1033.18 1033.56 1033.82 1033.83 1033.43 1032.89 1032.84 1033.03 1033.33 1033.23 1033.18 1032.81 1032.56 1032.36 1032.23 1032.08 1031.97 1031.67 1031.34 1030.81 1030.34 1029.83 1029.49 1029.24 1029.09 1029.42 1029.49 1029.58 1029.52
1022.05 1022.30 1023.40 1024.73 1026.33 1027.71 1028.27 1028.39 1028.16 1028.21 1028.46 1028.77 1029.03 1029.13 1029.74 1030.13 1030.19 1030.39 1030.77 1031.26 1031.80 1032.15 1032.56 1033.12 1033.20 1033.14 1033.32 1033.66 1033.70 1033.33 1033.21 1032.73 1032.73 1032.79 1032.75 1032.52 1032.27 1032.07 1031.82 1031.55 1031.40 1031.28 1031.01 1030.78 1030.52 1030.32 1030.13 1029.98 1029.91 1029.58 1029.48 1029.39 1029.31 1029.26
1023.32 1023.81 1024.48 1026.15 1027.94 1028.97 1029.04 1028.99 1028.98 1029.17 1029.53 1029.69 1030.21 1030.44 1030.62 1030.71 1030.88 1030.75 1030.72 1031.23 1031.90 1032.47 1032.28 1032.48 1033.03 1032.83 1032.54 1032.55 1032.57 1032.48 1032.22 1032.35 1032.68 1032.77 1032.73 1032.28 1031.77 1031.44 1030.92 1030.52 1030.27 1030.20 1030.09 1030.05 1029.98 1029.93 1029.79 1029.73 1029.55 1029.34 1029.21 1029.03 1028.93 1028.90
1024.95 1025.40 1026.07 1027.20 1028.58 1029.28 1029.58 1029.53 1029.82 1030.33 1030.55 1030.98 1031.35 1031.49 1031.69 1031.70 1031.45 1030.85 1030.72 1030.91 1031.42 1031.57 1031.81 1031.91 1031.82 1031.94 1032.00 1032.05 1032.09 1032.11 1031.31 1032.19 1032.11 1030.80 1030.20 1029.79 1029.24 1029.20 1028.86 1028.70 1028.74 1028.67 1029.15 1029.26 1029.25 1029.24 1029.25 1029.16 1029.06 1028.92 1028.84 1028.79 1028.73 1028.72
Thickness
5431 5429 5427 5426 5425 5422 5420 5419 5414 5412 5409 5405 5398 5391 5385 5376 5365 5354 5346 5337 5326 5326 5336 5344 5344 5347 5349 5347 5346 5358 5375 5390 5411 5435 5449 5462 5459 5476 5489 5492 5493 5497 5493 5494 5492 5500 5508 5531 5530 5536 5538 5543 5562 5574
5425 5425 5425 5423 5422 5422 5420 5419 5417 5413 5411 5408 5404 5398 5390 5382 5372 5360 5351 5342 5331 5328 5336 5342 5345 5343 5339 5341 5342 5350 5360 5369 5388 5402 5436 5451 5466 5458 5490 5475 5494 5491 5504 5498 5507 5505 5490 5487 5495 5505 5513 5527 5535 5535
5426 5423 5423 5422 5420 5420 5420 5417 5416 5416 5414 5412 5409 5406 5398 5388 5378 5366 5355 5342 5337 5333 5337 5341 5345 5344 5342 5341 5341 5342 5363 5364 5374 5376 5396 5427 5457 5438 5465 5459 5462 5457 5448 5475 5479 5456 5461 5467 5480 5490 5498 5502 5506 5508
5422 5421 5420 5420 5419 5418 5419 5418 5416 5415 5416 5413 5413 5410 5403 5392 5382 5372 5355 5342 5335 5325 5327 5336 5344 5343 5346 5347 5348 5347 5352 5360 5367 5379 5394 5412 5427 5418 5430 5440 5428 5399 5421 5442 5431 5435 5445 5450 5460 5471 5474 5480 5482 5485
5414 5416 5416 5415 5417 5417 5414 5415 5417 5416 5415 5413 5412 5411 5405 5395 5384 5372 5356 5341 5330 5319 5314 5324 5337 5345 5345 5347 5353 5355 5356 5359 5369 5380 5385 5390 5393 5394 5408 5404 5365 5365 5370 5396 5419 5410 5425 5432 5443 5449 5452 5455 5456 5457
5408 5408 5410 5412 5412 5413 5413 5412 5413 5415 5416 5413 5412 5407 5403 5397 5386 5373 5361 5343 5332 5322 5315 5326 5336 5331 5337 5346 5353 5356 5358 5357 5360 5368 5373 5375 5368 5378 5395 5360 5334 5343 5355 5366 5383 5391 5399 5406 5419 5425 5429 5430 5431 5429
5403 5406 5404 5405 5408 5409 5411 5410 5410 5411 5414 5413 5410 5405 5397 5392 5385 5370 5350 5338 5332 5323 5319 5322 5317 5320 5321 5334 5341 5344 5350 5348 5351 5358 5357 5354 5348 5352 5343 5320 5314 5324 5336 5357 5372 5376 5379 5386 5391 5396 5403 5403 5403 5398
5397 5398 5399 5400 5400 5402 5405 5406 5407 5408 5409 5409 5407 5400 5393 5386 5376 5363 5352 5341 5334 5328 5314 5278 5280 5293 5303 5299 5313 5326 5337 5340 5336 5342 5335 5333 5325 5314 5297 5288 5297 5307 5327 5345 5352 5359 5363 5365 5371 5374 5377 5379 5377 5371
5396 5394 5393 5393 5394 5395 5396 5399 5402 5404 5406 5407 5405 5398 5390 5376 5361 5355 5349 5339 5330 5317 5288 5263 5248 5258 5279 5274 5291 5310 5322 5331 5325 5318 5320 5320 5291 5267 5260 5267 5279 5294 5309 5324 5333 5337 5342 5347 5349 5349 5350 5349 5350 5342
5396 5392 5388 5389 5389 5391 5391 5391 5394 5398 5399 5400 5398 5389 5367 5360 5357 5354 5342 5326 5311 5290 5273 5250 5243 5228 5242 5250 5270 5284 5299 5311 5316 5306 5310 5293 5263 5250 5248 5255 5265 5278 5288 5304 5313 5314 5318 5321 5321 5322 5322 5320 5319 5317
5392 5390 5387 5384 5384 5385 5384 5383 5384 5388 5388 5380 5370 5357 5357 5356 5350 5331 5300 5289 5277 5259 5256 5238 5228 5219 5229 5232 5247 5263 5265 5290 5304 5294 5300 5282 5247 5232 5235 5241 5249 5257 5267 5276 5284 5289 5294 5296 5297 5299 5296 5295 5299 5300
5388 5386 5384 5380 5378 5376 5377 5375 5375 5373 5366 5358 5351 5349 5345 5331 5308 5288 5255 5263 5256 5242 5235 5214 5214 5208 5212 5222 5235 5247 5251 5276 5285 5269 5276 5243 5217 5215 5220 5226 5231 5239 5245 5254 5259 5262 5264 5269 5272 5276 5275 5274 5274 5275
5383 5382 5378 5377 5376 5372 5370 5368 5366 5363 5363 5356 5342 5323 5312 5292 5275 5246 5230 5225 5222 5227 5214 5210 5197 5191 5201 5212 5217 5225 5235 5257 5256 5248 5220 5201 5202 5203 5206 5210 5215 5220 5226 5233 5237 5239 5240 5247 5250 5252 5252 5251 5252 5252
5382 5378 5376 5374 5371 5368 5365 5361 5357 5355 5349 5326 5310 5293 5278 5252 5255 5249 5239 5227 5221 5213 5205 5193 5183 5185 5189 5199 5208 5203 5226 5217 5222 5217 5194 5186 5187 5189 5193 5198 5203 5206 5212 5217 5221 5223 5226 5228 5231 5232 5233 5235 5236 5236
5379 5375 5372 5371 5366 5363 5358 5353 5350 5346 5332 5308 5300 5279 5264 5262 5248 5236 5223 5216 5211 5197 5187 5177 5171 5174 5177 5196 5202 5195 5194 5181 5169 5167 5169 5171 5173 5176 5179 5183 5188 5193 5197 5201 5205 5208 5209 5211 5211 5212 5213 5214 5217 5219
5373 5370 5366 5361 5356 5353 5352 5347 5339 5329 5308 5298 5288 5272 5267 5251 5240 5227 5217 5204 5193 5182 5176 5172 5160 5167 5193 5173 5171 5156 5165 5144 5144 5146 5150 5156 5157 5160 5163 5167 5171 5175 5180 5184 5186 5188 5189 5191 5194 5194 5195 5197 5199 5201
5370 5366 5363 5358 5351 5344 5340 5336 5327 5306 5294 5285 5272 5274 5259 5243 5231 5217 5203 5192 5183 5170 5157 5150 5137 5150 5135 5146 5141 5138 5129 5125 5124 5132 5134 5136 5139 5144 5149 5153 5156 5159 5162 5165 5167 5169 5171 5174 5178 5180 5181 5180 5183 5184
5366 5362 5356 5350 5345 5336 5325 5312 5304 5293 5282 5265 5266 5256 5249 5232 5222 5207 5194 5182 5171 5159 5151 5138 5129 5120 5120 5117 5124 5112 5108 5107 5113 5115 5118 5123 5127 5131 5136 5139 5142 5144 5147 5149 5152 5154 5158 5162 5164 5165 5165 5167 5168 5170
5359 5353 5346 5339 5333 5324 5312 5298 5289 5280 5262 5256 5249 5241 5234 5220 5204 5195 5185 5172 5160 5151 5136 5130 5124 5113 5121 5105 5095 5088 5086 5091 5094 5103 5107 5110 5114 5118 5122 5124 5128 5131 5134 5138 5141 5142 5142 5142 5144 5147 5150 5152 5153 5154
5350 5343 5335 5327 5318 5313 5297 5281 5275 5274 5251 5247 5236 5225 5217 5206 5191 5181 5171 5161 5151 5138 5122 5111 5118 5111 5095 5088 5084 5080 5079 5080 5079 5092 5104 5103 5105 5108 5110 5113 5116 5120 5123 5126 5130 5133 5131 5131 5131 5133 5137 5139 5134 5136
5337 5327 5321 5313 5299 5292 5281 5269 5264 5254 5243 5233 5212 5210 5199 5188 5179 5167 5155 5145 5135 5117 5114 5116 5106 5097 5089 5081 5075 5072 5070 5066 5066 5073 5083 5093 5095 5099 5100 5103 5105 5110 5114 5117 5118 5117 5117 5117 5118 5120 5121 5122 5123 5125
5327 5317 5307 5297 5287 5272 5260 5246 5251 5237 5230 5208 5198 5190 5183 5175 5163 5149 5133 5128 5123 5123 5116 5105 5097 5088 5081 5070 5065 5063 5060 5057 5059 5065 5074 5080 5086 5089 5091 5091 5096 5100 5103 5103 5103 5103 5103 5104 5107 5109 5109 5110 5113 5114
5315 5307 5296 5287 5278 5268 5241 5232 5242 5227 5227 5196 5177 5178 5167 5156 5146 5135 5127 5124 5122 5118 5109 5098 5086 5074 5066 5062 5059 5056 5054 5051 5052 5054 5057 5062 5069 5073 5076 5077 5079 5084 5088 5087 5087 5088 5089 5095 5093 5097 5096 5098 5099 5099
5304 5297 5290 5282 5276 5246 5223 5231 5223 5218 5205 5194 5186 5178 5157 5144 5133 5125 5128 5124 5121 5113 5102 5085 5076 5070 5063 5057 5054 5055 5049 5044 5044 5046 5046 5048 5056 5059 5060 5063 5064 5067 5070 5072 5073 5075 5076 5077 5083 5081 5082 5082 5085 5086
5295 5287 5277 5261 5239 5236 5240 5224 5222 5215 5215 5194 5187 5166 5151 5131 5128 5118 5121 5117 5111 5101 5092 5080 5072 5063 5055 5053 5049 5046 5039 5034 5031 5031 5037 5038 5040 5045 5049 5050 5051 5054 5056 5056 5059 5061 5062 5063 5065 5067 5068 5069 5073 5076
5296 5276 5271 5266 5239 5248 5248 5235 5222 5217 5202 5183 5173 5143 5131 5126 5116 5119 5123 5117 5107 5095 5086 5076 5067 5058 5052 5044 5037 5035 5033 5028 5023 5021 5028 5029 5029 5030 5033 5037 5039 5040 5041 5042 5043 5045 5048 5051 5053 5053 5056 5059 5067 5066
5296 5261 5247 5239 5241 5235 5224 5215 5208 5207 5193 5189 5161 5143 5140 5130 5124 5130 5116 5109 5098 5087 5078 5068 5057 5047 5041 5039 5036 5032 5027 5023 5019 5018 5019 5019 5020 5021 5021 5022 5024 5028 5030 5031 5033 5036 5039 5042 5044 5047 5048 5050 5051 5054
5267 5251 5246 5226 5226 5223 5222 5214 5205 5202 5194 5178 5163 5147 5144 5143 5142 5117 5106 5095 5085 5074 5063 5054 5048 5042 5036 5032 5027 5023 5019 5017 5016 5014 5013 5013 5013 5014 5014 5015 5016 5020 5024 5024 5029 5032 5034 5036 5038 5040 5043 5044 5047 5047
5245 5238 5236 5219 5213 5212 5213 5208 5202 5183 5169 5167 5166 5156 5141 5124 5109 5099 5090 5079 5069 5059 5046 5040 5036 5031 5028 5025 5021 5017 5013 5009 5007 5007 5005 5007 5007 5007 5008 5008 5010 5012 5014 5017 5023 5029 5031 5034 5036 5039 5042 5039 5038 5039
5226 5226 5220 5215 5213 5204 5172 5159 5157 5148 5142 5136 5131 5124 5115 5103 5090 5083 5075 5063 5053 5043 5036 5031 5026 5021 5015 5011 5007 5007 5008 5006 5002 4999 4995 4995 4996 4998 4999 5001 5004 5007 5009 5011 5014 5018 5023 5023 5025 5026 5027 5029 5029 5030
5208 5209 5197 5184 5165 5146 5137 5133 5134 5129 5121 5114 5106 5106 5095 5081 5076 5068 5060 5051 5041 5032 5025 5019 5014 5010 5008 5003 4998 4997 4998 5000 4998 4996 4994 4993 4994 4994 4996 4999 5002 5003 5004 5006 5009 5010 5011 5013 5013 5016 5018 5020 5021 5028
5186 5182 5181 5161 5137 5124 5122 5122 5118 5113 5104 5101 5088 5076 5069 5064 5057 5052 5047 5038 5027 5021 5022 5014 5008 5007 5007 5004 5001 5000 5002 4997 4993 4991 4990 4990 4991 4994 4996 4998 5001 5001 5002 5003 5004 5005 5007 5008 5011 5013 5017 5018 5020 5020
5160 5155 5148 5136 5125 5120 5110 5111 5104 5094 5086 5076 5067 5055 5045 5044 5040 5038 5036 5031 5023 5018 5014 5010 5007 5005 5002 5000 4998 4996 4997 4993 4991 4991 4993 4994 4996 4997 4999 5001 5001 5002 5001 5001 5002 5002 5004 5005 5007 5010 5012 5012 5012 5012